Northern Highway — 3EVE6 — position and weather

sailwx.info

Track history (hours):
 
Tides and Currents Weather Stations Pressure Air Temp Water Temp Dewpoint Dewpoint Depression Visibility Wind Speed Wind Dir Waves Ship Positions

Northern Highway

Last reported at 2015-Feb-01 20:29 UTC. Time now 2015-Feb-01 21:18 UTC.
Position N 31°21' E 121°39'.

Length 188 m; draft 7.4 m.

Type: Cargo ship. MMSI: 371608000.

Date/timePositionNaut miles runAvg speedWind from/ knotsBaromVisibWave heightAir tempDewpointWater temp
2015-Feb-01 20:29N 31°21' E 121°39'0 0.0
2015-Feb-01 19:32N 31°21' E 121°39'0 0.0
2015-Feb-01 18:32N 31°21' E 121°39'0 0.0
2015-Feb-01 17:32N 31°21' E 121°39'0 0.0
2015-Feb-01 16:32N 31°21' E 121°39'0 0.1
2015-Feb-01 15:33N 31°21' E 121°39'5 5.0
2015-Feb-01 14:33N 31°19' E 121°44'1010.0
2015-Feb-01 13:33N 31°16' E 121°55'1010.1
2015-Feb-01 12:33N 31°13' E 122°07'10 9.7
2015-Feb-01 11:33N 31°08' E 122°16'8 8.3
2015-Feb-01 10:33N 31°06' E 122°26'34510.8
2015-Jan-31 02:32N 36°51' E 122°43'4217.3
2015-Jan-31 00:08N 37°32' E 122°40'1117.8
2015-Jan-30 23:32N 37°39' E 122°30'1717.1
2015-Jan-30 22:32N 37°48' E 122°12'19915.1
2015-Jan-30 09:22N 38°51' E 118°11'1012.2
2015-Jan-30 08:33N 38°56' E 118°00'1110.7
2015-Jan-30 07:33N 38°59' E 117°47'0 0.3
2015-Jan-30 06:31N 38°59' E 117°47'0 0.0
2015-Jan-30 05:31N 38°59' E 117°47'0 0.0
2015-Jan-30 04:31N 38°59' E 117°47'0 0.0
2015-Jan-30 03:31N 38°59' E 117°47'0 0.0
2015-Jan-30 02:25N 38°59' E 117°47'0 0.0
2015-Jan-30 01:31N 38°59' E 117°47'0 0.0
2015-Jan-30 00:31N 38°59' E 117°47'0 0.0
2015-Jan-29 23:31N 38°59' E 117°47'0 0.2
2015-Jan-29 22:33N 38°59' E 117°47'1010.3
2015-Jan-29 21:34N 38°57' E 117°60'5 4.6
2015-Jan-29 20:29N 38°58' E 118°06'0 0.1
2015-Jan-29 19:33N 38°58' E 118°06'10 9.1
2015-Jan-29 18:27N 38°51' E 118°16'15315.4
2015-Jan-29 08:32N 38°20' E 121°27'6516.2
2015-Jan-29 04:33N 37°44' E 122°36'45114.0
2015-Jan-27 20:20N 34°03' E 130°42'43013.3
2015-Jan-26 12:04N 34°53' E 139°19'816.8
2015-Jan-26 11:33N 34°58' E 139°28'1616.3
2015-Jan-26 10:33N 35°08' E 139°44'1010.0
2015-Jan-26 09:33N 35°18' E 139°44'9 9.4
2015-Jan-26 08:33N 35°27' E 139°42'1 0.8
2015-Jan-26 07:33N 35°27' E 139°41'0 0.0
2015-Jan-26 06:33N 35°27' E 139°41'0 0.0
2015-Jan-26 05:33N 35°27' E 139°41'0 0.0
2015-Jan-26 04:33N 35°27' E 139°41'0 0.0
2015-Jan-26 03:30N 35°27' E 139°41'0 0.0
2015-Jan-26 02:33N 35°27' E 139°41'0 0.0
2015-Jan-26 01:33N 35°27' E 139°41'0 0.3
2015-Jan-26 00:33N 35°27' E 139°41'2 2.1
2015-Jan-25 23:33N 35°26' E 139°43'8 7.8
2015-Jan-25 22:33N 35°18' E 139°45'1110.6
2015-Jan-25 21:33N 35°07' E 139°46'8 8.4
2015-Jan-25 20:33N 34°60' E 139°41'1110.7
2015-Jan-25 19:33N 34°49' E 139°38'7 0.8
2015-Jan-25 11:27N 34°43' E 139°34'1 0.8
2015-Jan-25 10:31N 34°44' E 139°35'1 1.1
2015-Jan-25 09:06N 34°44' E 139°37'1 1.0
2015-Jan-25 08:23N 34°45' E 139°38'1 1.0
2015-Jan-25 07:33N 34°45' E 139°39'1 0.9
2015-Jan-25 06:17N 34°46' E 139°40'1 1.1
2015-Jan-25 05:33N 34°46' E 139°41'1111.0
2015-Jan-25 04:32N 34°50' E 139°53'1413.7
2015-Jan-25 03:29N 34°57' E 140°09'1413.7
2015-Jan-25 02:28N 35°04' E 140°23'  
Track history (hours):
 
Tides and Currents Weather Stations Pressure Air Temp Water Temp Dewpoint Dewpoint Depression Visibility Wind Speed Wind Dir Waves Ship Positions

Northern Highway

Last reported at 2015-Feb-01 20:29 UTC. Time now 2015-Feb-01 21:18 UTC.
Position N 31°21' E 121°39'.

Length 188 m; draft 7.4 m.

Type: Cargo ship. MMSI: 371608000.

Date/timePositionNaut miles runAvg speedWind from/ knotsBaromVisibWave heightAir tempDewpointWater temp
2015-Feb-01 20:29N 31°21' E 121°39'0 0.0
2015-Feb-01 19:32N 31°21' E 121°39'0 0.0
2015-Feb-01 18:32N 31°21' E 121°39'0 0.0
2015-Feb-01 17:32N 31°21' E 121°39'0 0.0
2015-Feb-01 16:32N 31°21' E 121°39'0 0.1
2015-Feb-01 15:33N 31°21' E 121°39'5 5.0
2015-Feb-01 14:33N 31°19' E 121°44'1010.0
2015-Feb-01 13:33N 31°16' E 121°55'1010.1
2015-Feb-01 12:33N 31°13' E 122°07'10 9.7
2015-Feb-01 11:33N 31°08' E 122°16'8 8.3
2015-Feb-01 10:33N 31°06' E 122°26'34510.8
2015-Jan-31 02:32N 36°51' E 122°43'4217.3
2015-Jan-31 00:08N 37°32' E 122°40'1117.8
2015-Jan-30 23:32N 37°39' E 122°30'1717.1
2015-Jan-30 22:32N 37°48' E 122°12'19915.1
2015-Jan-30 09:22N 38°51' E 118°11'1012.2
2015-Jan-30 08:33N 38°56' E 118°00'1110.7
2015-Jan-30 07:33N 38°59' E 117°47'0 0.3
2015-Jan-30 06:31N 38°59' E 117°47'0 0.0
2015-Jan-30 05:31N 38°59' E 117°47'0 0.0
2015-Jan-30 04:31N 38°59' E 117°47'0 0.0
2015-Jan-30 03:31N 38°59' E 117°47'0 0.0
2015-Jan-30 02:25N 38°59' E 117°47'0 0.0
2015-Jan-30 01:31N 38°59' E 117°47'0 0.0
2015-Jan-30 00:31N 38°59' E 117°47'0 0.0
2015-Jan-29 23:31N 38°59' E 117°47'0 0.2
2015-Jan-29 22:33N 38°59' E 117°47'1010.3
2015-Jan-29 21:34N 38°57' E 117°60'5 4.6
2015-Jan-29 20:29N 38°58' E 118°06'0 0.1
2015-Jan-29 19:33N 38°58' E 118°06'10 9.1
2015-Jan-29 18:27N 38°51' E 118°16'15315.4
2015-Jan-29 08:32N 38°20' E 121°27'6516.2
2015-Jan-29 04:33N 37°44' E 122°36'45114.0
2015-Jan-27 20:20N 34°03' E 130°42'43013.3
2015-Jan-26 12:04N 34°53' E 139°19'816.8
2015-Jan-26 11:33N 34°58' E 139°28'1616.3
2015-Jan-26 10:33N 35°08' E 139°44'1010.0
2015-Jan-26 09:33N 35°18' E 139°44'9 9.4
2015-Jan-26 08:33N 35°27' E 139°42'1 0.8
2015-Jan-26 07:33N 35°27' E 139°41'0 0.0
2015-Jan-26 06:33N 35°27' E 139°41'0 0.0
2015-Jan-26 05:33N 35°27' E 139°41'0 0.0
2015-Jan-26 04:33N 35°27' E 139°41'0 0.0
2015-Jan-26 03:30N 35°27' E 139°41'0 0.0
2015-Jan-26 02:33N 35°27' E 139°41'0 0.0
2015-Jan-26 01:33N 35°27' E 139°41'0 0.3
2015-Jan-26 00:33N 35°27' E 139°41'2 2.1
2015-Jan-25 23:33N 35°26' E 139°43'8 7.8
2015-Jan-25 22:33N 35°18' E 139°45'1110.6
2015-Jan-25 21:33N 35°07' E 139°46'8 8.4
2015-Jan-25 20:33N 34°60' E 139°41'1110.7
2015-Jan-25 19:33N 34°49' E 139°38'7 0.8
2015-Jan-25 11:27N 34°43' E 139°34'1 0.8
2015-Jan-25 10:31N 34°44' E 139°35'1 1.1
2015-Jan-25 09:06N 34°44' E 139°37'1 1.0
2015-Jan-25 08:23N 34°45' E 139°38'1 1.0
2015-Jan-25 07:33N 34°45' E 139°39'1 0.9
2015-Jan-25 06:17N 34°46' E 139°40'1 1.1
2015-Jan-25 05:33N 34°46' E 139°41'1111.0
2015-Jan-25 04:32N 34°50' E 139°53'1413.7
2015-Jan-25 03:29N 34°57' E 140°09'1413.7
2015-Jan-25 02:28N 35°04' E 140°23'  

Dump ship's entire track history